[[{"header":{"parameterUnit":"m.s-1","parameterCategory":1,"la1":30.2991,"la2":30.254,"lo1":-89.0895,"lo2":-89.0444,"dy":0.0017,"dx":0.0017,"nx":28,"ny":28,"refTime":"2026-02-24T09:00:00:Z","depth":0,"parameterNumber":2,"parameterNumberName":"U-component_of_WINDS"},"data":[0,0,0,0,0,0,0,0,0,0,0,0,0,0,0,0,0,0,0,0,0,0,0,0,0,0,0,0,0,0,0,0,0,0,0,0,0,0,0,0,0,0,0,0,0,0,0,0,0,0,0,0,0,0,0,0,0,0,1.7605,1.7605,0,1.7637,1.7637,1.7637,1.76,1.7598,1.7597,1.7596,1.763,1.7632,1.7634,0,0,0,0,0,0,0,0,0,0,0,0,0,1.7514,1.7516,1.7605,1.7605,1.7606,1.7637,1.7637,1.7637,1.76,1.7598,1.7597,1.7595,1.7629,1.7631,1.7634,0,0,0,0,0,0,0,0,0,0,0,0,0,1.755,1.7516,1.7605,1.7591,1.759,1.7636,1.7637,1.7638,1.76,1.7598,1.7596,1.7594,1.7628,1.7631,1.7634,1.7697,0,0,1.7645,1.7646,0,0,0,0,0,0,0,0,1.7548,1.7554,1.7593,1.7592,1.7591,1.7612,1.7617,1.7658,1.7601,1.7597,1.7596,1.7593,1.7626,1.7629,1.7639,1.7698,1.77,1.7645,1.7647,1.7648,1.7649,0,0,0,0,0,0,0,1.7546,1.7552,1.7618,1.7593,1.7592,1.7583,1.7586,1.7625,1.7622,1.7597,1.7594,1.7598,1.7625,1.7636,1.764,1.77,1.7645,1.7648,1.765,1.7651,1.7812,1.7814,0,0,0,0,0,0,1.7545,1.755,1.7617,1.7619,1.7564,1.7587,1.759,1.7607,1.7622,1.7622,1.76,1.7596,1.7632,1.7636,1.7641,1.7715,1.7648,1.7651,1.7653,1.781,1.7813,1.7815,0,0,0,0,0,0,1.7543,1.7551,1.7615,1.7584,1.7591,1.7591,1.7611,1.7609,1.7621,1.7624,1.7624,1.7612,1.763,1.7636,1.7683,1.7716,1.7653,1.7656,1.7807,1.7811,1.7814,1.7863,0,0,0,0,0,0,1.7541,1.7551,1.7574,1.7585,1.7593,1.7657,1.7613,1.7611,1.7626,1.7622,1.7636,1.7636,1.7629,1.7678,1.7686,1.7719,1.7658,1.7804,1.7809,1.7813,1.7859,1.7868,1.7876,0,0,0,0,0,1.7537,1.7587,1.7575,1.7584,1.7622,1.7659,1.7663,1.7654,1.7629,1.7653,1.7655,1.7636,1.7711,1.7684,1.7692,1.7726,1.7802,1.7808,1.7813,1.7855,1.7866,1.7876,0,0,0,0,0,0,1.7581,1.7588,1.7575,1.763,1.7644,1.7652,1.7682,1.7666,1.7688,1.7683,1.7671,1.7674,1.7724,1.773,1.7699,1.7788,1.7752,1.776,1.7782,1.7793,1.7801,1.7798,1.7661,0,0,0,0,0,1.7596,1.7625,1.763,1.7678,1.7685,1.7682,1.7698,1.7689,1.7704,1.771,1.7715,1.773,1.7757,1.7775,1.78,1.786,1.7862,1.7887,1.7896,1.7903,1.7909,1.7941,1.7952,1.7832,1.7832,1.7832,0,0,1.7629,1.7637,1.7656,1.7686,1.7696,1.7726,1.7688,1.7721,1.7743,1.7715,1.7759,1.7764,1.778,1.7833,1.7857,1.784,1.7943,1.791,1.7915,1.7918,1.7948,1.7959,1.7969,1.7836,1.7835,1.7834,0,0,1.7705,1.7714,1.7754,1.7765,1.778,1.7778,1.7788,1.7799,1.78,1.7845,1.7824,1.785,1.7897,1.7909,1.7922,1.8002,1.7985,1.8011,1.8056,1.8087,1.8096,1.8105,1.8133,1.8144,1.8017,1.8017,1.8017,0,1.7744,1.7788,1.7777,1.7812,1.7826,1.7801,1.7842,1.7853,1.7876,1.7887,1.7867,1.7925,1.7934,1.799,1.8009,1.802,1.8031,1.8009,1.8096,1.8104,1.8112,1.8139,1.815,1.802,1.802,1.802,1.8019,0,1.7836,1.7867,1.7898,1.792,1.7938,1.7976,1.797,1.799,1.798,1.798,1.8026,1.8036,1.8062,1.8075,1.8066,1.813,1.8118,1.8097,1.8062,1.8126,1.8152,1.8162,1.8025,1.8023,1.8023,1.8022,0,0,1.7939,1.7954,1.7966,1.7976,1.7991,1.8015,1.8052,1.8078,1.8095,1.8112,1.8142,1.8183,1.8163,1.8177,1.817,1.8197,1.826,1.8173,1.8173,1.8188,1.8331,1.8346,1.8359,1.8249,1.8251,1.8252,1.833,0,1.8014,1.8077,1.8069,1.813,1.8159,1.8136,1.8168,1.8181,1.8182,1.8207,1.8209,1.8237,1.821,1.8218,1.8244,1.8247,1.8289,1.8241,1.8278,1.8279,1.8274,1.8372,1.8388,1.8461,1.8339,1.8341,1.8342,0,1.811,1.813,1.8194,1.8205,1.8217,1.8246,1.8269,1.8293,1.8308,1.8307,1.8322,1.831,1.8347,1.8311,1.8363,1.8331,1.8346,1.8349,1.8352,1.8355,1.8314,1.8377,1.8484,1.8494,1.8358,1.8357,1.8356,0,1.8178,1.8222,1.8265,1.8275,1.8289,1.831,1.8317,1.8329,1.8345,1.8366,1.8376,1.84,1.8414,1.8433,1.8428,1.8402,1.8481,1.8444,1.8481,1.8482,1.8499,1.8498,1.8609,1.8509,1.8508,1.8508,1.8508,0,1.8263,1.8303,1.8296,1.8323,1.8368,1.8358,1.8402,1.8406,1.8418,1.8445,1.8427,1.8454,1.8445,1.8471,1.8467,1.851,1.8517,1.8517,1.8516,1.8519,1.8519,1.8528,1.8523,1.8511,1.851,1.851,1.8509,0,1.8347,1.8344,1.839,1.84,1.8403,1.8435,1.8444,1.8469,1.8469,1.8505,1.8512,1.8513,1.8542,1.8539,1.8572,1.857,1.8624,1.8616,1.8618,1.8617,1.8654,1.865,1.8774,1.879,1.868,1.8681,1.8682,0,1.8401,1.8431,1.8444,1.8461,1.8469,1.8497,1.8514,1.8505,1.8523,1.8542,1.8565,1.8594,1.8616,1.8664,1.8668,1.8693,1.8686,1.8728,1.869,1.8692,1.8687,1.8685,1.8688,1.8735,1.8737,1.8738,1.8738,0,1.8497,1.8494,1.8518,1.8542,1.8562,1.858,1.8596,1.8612,1.8605,1.8626,1.8656,1.8673,1.8707,1.8735,1.876,1.8767,1.8752,1.8751,1.876,1.8764,1.8764,1.8764,1.8639,1.8748,1.8747,1.8746,1.8746,1.8745,1.8567,1.8593,1.8606,1.8634,1.8645,1.8661,1.8686,1.8689,1.8714,1.874,1.8734,1.8768,1.8783,1.8814,1.8824,1.885,1.8835,1.885,1.8853,1.8857,1.8861,1.876,1.8855,1.8855,1.8854,1.8854,1.8854,0,1.8662,1.867,1.8695,1.8719,1.874,1.8724,1.8742,1.8761,1.8791,1.8806,1.8828,1.8862,1.889,1.8896,1.8922,1.8942,1.8936,1.895,1.8948,1.895,1.8873,1.8862,1.8954,1.8954,1.8954,1.8954,1.8954,1.8954,1.8714,1.8757,1.8756,1.8804,1.8812,1.8845,1.8856,1.8871,1.8882,1.8922,1.8945,1.8948,1.8959,1.8986,1.9011,1.9012,1.9022,1.9039,1.9037,1.8965,1.8955,1.8946,1.8935,1.9041,1.9041,1.9111,1.9112,1.9112]},{"header":{"parameterUnit":"m.s-1","parameterCategory":1,"la1":30.2991,"la2":30.254,"lo1":-89.0895,"lo2":-89.0444,"dy":0.0017,"dx":0.0017,"nx":28,"ny":28,"refTime":"2026-02-24T09:00:00:Z","depth":0,"parameterNumber":3,"parameterNumberName":"V-component_of_WINDS"},"data":[0,0,0,0,0,0,0,0,0,0,0,0,0,0,0,0,0,0,0,0,0,0,0,0,0,0,0,0,0,0,0,0,0,0,0,0,0,0,0,0,0,0,0,0,0,0,0,0,0,0,0,0,0,0,0,0,0,0,6.7383,6.7384,0,6.7507,6.7509,6.751,6.7497,6.7495,6.7493,6.7492,6.7612,6.7617,6.7621,0,0,0,0,0,0,0,0,0,0,0,0,0,6.7125,6.713,6.7382,6.7384,6.7386,6.7507,6.7509,6.7511,6.7498,6.7495,6.7493,6.7491,6.761,6.7616,6.7622,0,0,0,0,0,0,0,0,0,0,0,0,0,6.7242,6.7132,6.7382,6.7394,6.7396,6.7507,6.7509,6.7511,6.7498,6.7495,6.7492,6.749,6.7608,6.7615,6.7623,6.7727,0,0,6.7646,6.7649,0,0,0,0,0,0,0,0,6.7235,6.7251,6.7391,6.7393,6.7396,6.7484,6.7462,6.7583,6.7499,6.7459,6.7492,6.7488,6.7571,6.7581,6.7611,6.7733,6.7738,6.7646,6.7651,6.7654,6.7656,0,0,0,0,0,0,0,6.7227,6.7246,6.7432,6.7393,6.7396,6.739,6.7404,6.7485,6.753,6.7462,6.7462,6.7477,6.7572,6.7604,6.7614,6.774,6.7646,6.7653,6.7657,6.766,6.7952,6.7955,0,0,0,0,0,0,6.7217,6.7239,6.7428,6.7435,6.7307,6.7398,6.7413,6.7459,6.7529,6.7537,6.748,6.7476,6.7592,6.7605,6.7618,6.7745,6.7654,6.7661,6.7665,6.7949,6.7953,6.7956,0,0,0,0,0,0,6.7212,6.7234,6.7423,6.7337,6.7361,6.7405,6.7457,6.7463,6.7495,6.7542,6.7549,6.7505,6.7591,6.7607,6.77,6.7748,6.7664,6.7671,6.7945,6.795,6.7955,6.7999,0,0,0,0,0,0,6.7205,6.7233,6.7275,6.7338,6.7366,6.7506,6.746,6.7467,6.7508,6.7505,6.7567,6.7574,6.759,6.7689,6.7708,6.7757,6.7677,6.7941,6.7947,6.7953,6.7993,6.8005,6.8014,0,0,0,0,0,6.7196,6.728,6.7277,6.73,6.7419,6.7509,6.7524,6.7542,6.7512,6.7554,6.7584,6.7572,6.774,6.7699,6.772,6.7772,6.7938,6.7945,6.7953,6.7988,6.8002,6.8014,0,0,0,0,0,0,6.7218,6.7289,6.7286,6.7395,6.7446,6.7506,6.7559,6.7556,6.7615,6.7609,6.7626,6.764,6.7734,6.7762,6.7715,6.7876,6.7835,6.7846,6.7855,6.7868,6.7879,6.787,6.7683,0,0,0,0,0,6.7237,6.7306,6.7362,6.7453,6.7479,6.7515,6.7554,6.7564,6.7617,6.7638,6.7675,6.7724,6.7788,6.7829,6.7891,6.7997,6.8009,6.8043,6.8053,6.8062,6.8072,6.8129,6.8145,6.798,6.798,6.798,0,0,6.7274,6.7321,6.7363,6.7459,6.75,6.7569,6.7533,6.7607,6.7658,6.7648,6.7739,6.7768,6.7824,6.7924,6.797,6.795,6.812,6.8071,6.8078,6.8083,6.8138,6.8154,6.8168,6.7985,6.7984,6.7984,0,0,6.7377,6.742,6.7501,6.7543,6.7606,6.763,6.7649,6.771,6.773,6.7822,6.7816,6.7874,6.7984,6.8025,6.8059,6.8178,6.8169,6.8197,6.8252,6.8308,6.8321,6.8332,6.8374,6.8389,6.8206,6.8207,6.8207,0,6.7415,6.7522,6.7541,6.7618,6.7659,6.7655,6.7735,6.7774,6.7853,6.7881,6.7858,6.7996,6.8033,6.8143,6.8172,6.82,6.8221,6.819,6.8318,6.8329,6.834,6.838,6.8396,6.821,6.8209,6.8209,6.8209,0,6.7565,6.7638,6.7695,6.7774,6.7822,6.7899,6.7928,6.7974,6.7978,6.8003,6.8096,6.8141,6.8211,6.8238,6.8242,6.8348,6.8333,6.8314,6.8273,6.8359,6.8397,6.8412,6.8214,6.8213,6.8212,6.8211,0,0,6.7687,6.7777,6.7797,6.7833,6.7903,6.7959,6.8034,6.8106,6.8144,6.8198,6.8261,6.8354,6.8337,6.8376,6.8385,6.8434,6.8524,6.8408,6.841,6.8428,6.8642,6.8657,6.8675,6.8519,6.8522,6.8524,6.8638,0,6.7797,6.7936,6.7955,6.8076,6.8144,6.8141,6.8207,6.8255,6.828,6.8338,6.8364,6.843,6.8402,6.8426,6.8475,6.8503,6.8568,6.8495,6.8576,6.8579,6.8563,6.8695,6.871,6.8815,6.8653,6.8655,6.8657,0,6.7945,6.8007,6.8135,6.8196,6.8224,6.8284,6.8351,6.8407,6.8461,6.8475,6.852,6.8522,6.8598,6.8554,6.8658,6.8608,6.8642,6.8661,6.8665,6.8674,6.8623,6.8706,6.8849,6.8865,6.8681,6.8679,6.8677,0,6.8022,6.8136,6.8228,6.8258,6.8331,6.8373,6.8404,6.8455,6.8497,6.8554,6.8581,6.8645,6.868,6.8728,6.8747,6.8713,6.885,6.8807,6.8862,6.8862,6.8892,6.889,6.9042,6.8913,6.8913,6.8912,6.8912,0,6.8143,6.8222,6.8263,6.8319,6.8407,6.8427,6.8512,6.8541,6.8587,6.8647,6.8647,6.8703,6.8725,6.8783,6.8798,6.8881,6.8897,6.8909,6.8912,6.891,6.8908,6.8932,6.8926,6.8917,6.8916,6.8915,6.8914,0,6.8244,6.8275,6.8374,6.8436,6.8453,6.8514,6.8565,6.8618,6.8642,6.8718,6.8737,6.8774,6.8843,6.8867,6.8949,6.8959,6.9057,6.9053,6.904,6.904,6.9095,6.9089,6.9268,6.9292,6.9147,6.9148,6.9149,0,6.832,6.8381,6.8449,6.8491,6.8525,6.8592,6.8635,6.8656,6.87,6.8766,6.8811,6.888,6.8937,6.9046,6.9079,6.9142,6.914,6.9198,6.9149,6.9145,6.9141,6.9137,6.9143,6.9207,6.9209,6.921,6.9211,0,6.8452,6.8464,6.8528,6.8597,6.8649,6.8703,6.8756,6.8789,6.8818,6.8867,6.8939,6.8983,6.9069,6.9137,6.9201,6.923,6.9225,6.9226,6.9242,6.9241,6.923,6.9237,6.9065,6.9222,6.9221,6.922,6.9219,6.9219,6.8542,6.8596,6.8653,6.8724,6.8766,6.8815,6.8869,6.89,6.8962,6.9035,6.9043,6.912,6.917,6.9257,6.9289,6.9348,6.9332,6.9355,6.9361,6.9367,6.9371,6.9221,6.936,6.9359,6.9359,6.9359,6.9359,0,6.8674,6.8711,6.8776,6.8851,6.8906,6.8899,6.8956,6.9002,6.9071,6.912,6.9176,6.9258,6.9324,6.9362,6.9427,6.9467,6.9466,6.9483,6.948,6.9487,6.9382,6.9362,6.9483,6.9483,6.9483,6.9482,6.9482,6.9482,6.875,6.8841,6.886,6.8971,6.9006,6.9084,6.9118,6.9162,6.9201,6.9294,6.935,6.9375,6.9419,6.9487,6.9546,6.9556,6.9579,6.9598,6.9606,6.9507,6.9494,6.9482,6.9463,6.9603,6.9604,6.9706,6.9707,6.9708]}]]